Weather History for Clinton, AR

Change the Weather History Date:

Friday, November 8, 2013

  Actual Average (KFLP) Record (KFLP)
Temperature  
Mean Temperature 48 °F -  
Max Temperature 64 °F 60 °F 80 °F (2005)
Min Temperature 32 °F 40 °F 30 °F (2012)
Degree Days  
Heating Degree Days 17    
Moisture  
Dew Point 38 °F    
Average Humidity 78    
Maximum Humidity 100    
Minimum Humidity 37    
Precipitation  
Precipitation 0.00 in - - ()
Sea Level Pressure  
Sea Level Pressure 30.30 in    
Wind  
Wind Speed 1 mph (SSE)    
Max Wind Speed 8 mph    
Max Gust Speed -    
Visibility 8 miles    
Events Fog    
Averages and records for this station are not official NWS values.
T = Trace of Precipitation, MM = Missing Value Source: NWS Daily Summary

Daily Weather History Graph

Daily Weather History Graph

Search for Another Location

Airport:

Trip Planner

Search our weather history database for the weather conditions in past years. The results will help you decide how hot, cold, wet, or windy it might be!

Date:

Astronomy

Nov. 08, 2013 Rise Set
Actual Time 6:38 AM CST 5:07 PM CST
Civil Twilight 6:12 AM CST 5:34 PM CST
Nautical Twilight 5:41 AM CST 6:05 PM CST
Astronomical Twilight 5:11 AM CST 6:35 PM CST
Moon 11:34 AM CST (11/8) 10:28 PM CST (11/8)
Length of Visible Light 11h 22m
Length of Day
10h 29m
Waxing Crescent, 33% of the Moon is Illuminated
Nov 8
Waxing Crescent
Nov 9
First Quarter
Nov 17
Full
Nov 25
Last Quarter
Dec 2
New

Hourly Weather History & Observations

Time (CST) Temp. Dew Point Humidity Pressure Visibility Wind Dir Wind Speed Gust Speed Precip Events Conditions
12:15 AM 35.6 °F 35.6 °F 100% 30.39 in 7.0 mi Calm Calm - N/A   Clear
12:35 AM 35.6 °F 35.6 °F 100% 30.39 in 7.0 mi Calm Calm - N/A   Clear
12:55 AM 35.6 °F 35.6 °F 100% 30.39 in 6.0 mi Calm Calm - N/A   Scattered Clouds
1:15 AM 35.6 °F 33.8 °F 93% 30.38 in 7.0 mi Calm Calm - N/A   Partly Cloudy
1:35 AM 35.6 °F 33.8 °F 93% 30.38 in 7.0 mi Calm Calm - N/A   Partly Cloudy
1:55 AM 35.6 °F 33.8 °F 93% 30.38 in 7.0 mi Calm Calm - N/A   Partly Cloudy
2:15 AM 33.8 °F 33.8 °F 100% 30.38 in 5.0 mi Calm Calm - N/A   Mostly Cloudy
2:35 AM 33.8 °F 33.8 °F 100% 30.38 in 6.0 mi Calm Calm - N/A   Scattered Clouds
2:55 AM 33.8 °F 33.8 °F 100% 30.38 in 6.0 mi Calm Calm - N/A   Clear
3:15 AM 33.8 °F 33.8 °F 100% 30.38 in 7.0 mi Calm Calm - N/A   Clear
3:35 AM 33.8 °F 33.8 °F 100% 30.38 in 7.0 mi Calm Calm - N/A   Clear
3:55 AM 33.8 °F 33.8 °F 100% 30.38 in 7.0 mi Calm Calm - N/A   Clear
4:15 AM 33.8 °F 33.8 °F 100% 30.39 in 5.0 mi Calm Calm - N/A   Mostly Cloudy
4:35 AM 33.8 °F 33.8 °F 100% 30.38 in 6.0 mi Calm Calm - N/A   Overcast
4:55 AM 33.8 °F 32.0 °F 93% 30.39 in 4.0 mi Calm Calm - N/A   Overcast
5:15 AM 33.8 °F 32.0 °F 93% 30.39 in 7.0 mi Calm Calm - N/A   Scattered Clouds
5:35 AM 32.0 °F 32.0 °F 100% 30.39 in 1.5 mi Calm Calm - N/A   Mostly Cloudy
5:55 AM 33.8 °F 32.0 °F 93% 30.39 in 4.0 mi Calm Calm - N/A   Scattered Clouds
6:15 AM 32.0 °F 32.0 °F 100% 30.39 in 8.0 mi Calm Calm - N/A   Clear
6:35 AM 32.0 °F 32.0 °F 100% 30.39 in 9.0 mi Calm Calm - N/A   Clear
6:55 AM 32.0 °F 32.0 °F 100% 30.39 in 8.0 mi Calm Calm - N/A   Partly Cloudy
7:15 AM 32.0 °F 32.0 °F 100% 30.39 in 9.0 mi Calm Calm - N/A   Clear
7:35 AM 33.8 °F 33.8 °F 100% 30.40 in 0.5 mi Calm Calm - N/A Fog Fog
7:55 AM 35.6 °F 33.8 °F 93% 30.40 in 5.0 mi Calm Calm - N/A   Clear
8:15 AM 37.4 °F 37.4 °F 100% 30.40 in 9.0 mi Calm Calm - N/A   Clear
8:35 AM 39.2 °F 39.2 °F 100% 30.40 in 10.0 mi Calm Calm - N/A   Clear
8:55 AM 42.8 °F 37.4 °F 81% 30.40 in 10.0 mi Calm Calm - N/A   Clear
9:15 AM 44.6 °F 39.2 °F 81% 30.40 in 10.0 mi Calm Calm - N/A   Clear
9:35 AM 48.2 °F 39.2 °F 71% 30.40 in 10.0 mi Calm Calm - N/A   Clear
9:55 AM 50.0 °F 39.2 °F 66% 30.39 in 9.0 mi Calm Calm - N/A   Clear
10:15 AM 53.6 °F 39.2 °F 58% 30.38 in 10.0 mi Calm Calm - N/A   Clear
10:35 AM 55.4 °F 39.2 °F 54% 30.37 in 4.0 mi Calm Calm - N/A   Haze
10:55 AM 55.4 °F 39.2 °F 54% 30.37 in 10.0 mi Calm Calm - N/A   Clear
11:15 AM 57.2 °F 39.2 °F 51% 30.35 in 9.0 mi East 3.5 mph - N/A   Clear
11:35 AM 60.8 °F 37.4 °F 42% 30.34 in 10.0 mi SE 3.5 mph - N/A   Clear
11:55 AM 60.8 °F 37.4 °F 42% 30.33 in 10.0 mi SE 4.6 mph - N/A   Clear
12:15 PM 60.8 °F 37.4 °F 42% 30.31 in 10.0 mi SSE 3.5 mph - N/A   Clear
12:35 PM 60.8 °F 37.4 °F 42% 30.30 in 10.0 mi SSE 4.6 mph - N/A   Clear
12:55 PM 62.6 °F 37.4 °F 39% 30.29 in 9.0 mi South 5.8 mph - N/A   Clear
1:15 PM 62.6 °F 37.4 °F 39% 30.28 in 10.0 mi SSE 6.9 mph - N/A   Clear
1:35 PM 64.4 °F 37.4 °F 37% 30.27 in 10.0 mi South 6.9 mph - N/A   Clear
1:55 PM 64.4 °F 37.4 °F 37% 30.26 in 10.0 mi SSE 8.1 mph - N/A   Clear
2:15 PM 62.6 °F 37.4 °F 39% 30.26 in 10.0 mi South 6.9 mph - N/A   Clear
2:35 PM 62.6 °F 37.4 °F 39% 30.25 in 10.0 mi SSE 5.8 mph - N/A   Clear
2:55 PM 62.6 °F 37.4 °F 39% 30.24 in 10.0 mi South 5.8 mph - N/A   Clear
3:15 PM 62.6 °F 39.2 °F 42% 30.23 in 9.0 mi SSE 4.6 mph - N/A   Clear
3:35 PM 62.6 °F 39.2 °F 42% 30.23 in 10.0 mi SSE 4.6 mph - N/A   Clear
3:55 PM 62.6 °F 37.4 °F 39% 30.22 in 9.0 mi SSE 6.9 mph - N/A   Clear
4:15 PM 60.8 °F 37.4 °F 42% 30.22 in 7.0 mi South 6.9 mph - N/A   Clear
4:35 PM 60.8 °F 37.4 °F 42% 30.22 in 7.0 mi SSE 3.5 mph - N/A   Clear
4:55 PM 59.0 °F 37.4 °F 45% 30.22 in 9.0 mi SSE 3.5 mph - N/A   Clear
5:15 PM 55.4 °F 42.8 °F 63% 30.22 in 10.0 mi North - - N/A   Clear
5:35 PM 51.8 °F 44.6 °F 76% 30.21 in 10.0 mi Calm Calm - N/A   Clear
5:55 PM 50.0 °F 44.6 °F 82% 30.21 in 10.0 mi Calm Calm - N/A   Clear
6:15 PM 48.2 °F 44.6 °F 87% 30.21 in 10.0 mi Calm Calm - N/A   Clear
6:35 PM 48.2 °F 44.6 °F 87% 30.21 in 10.0 mi Calm Calm - N/A   Clear
6:55 PM 46.4 °F 42.8 °F 87% 30.21 in 10.0 mi Calm Calm - N/A   Clear
7:15 PM 46.4 °F 42.8 °F 87% 30.20 in 10.0 mi Calm Calm - N/A   Clear
7:35 PM 44.6 °F 42.8 °F 93% 30.20 in 10.0 mi Calm Calm - N/A   Clear
7:55 PM 44.6 °F 42.8 °F 93% 30.20 in 10.0 mi Calm Calm - N/A   Clear
8:15 PM 44.6 °F 41.0 °F 87% 30.20 in 10.0 mi Calm Calm - N/A   Clear
8:35 PM 42.8 °F 41.0 °F 93% 30.19 in 10.0 mi Calm Calm - N/A   Clear
8:55 PM 42.8 °F 39.2 °F 87% 30.19 in 10.0 mi Calm Calm - N/A   Clear
9:15 PM 42.8 °F 41.0 °F 93% 30.20 in 10.0 mi Calm Calm - N/A   Clear
9:35 PM 42.8 °F 39.2 °F 87% 30.20 in 10.0 mi Calm Calm - N/A   Clear
9:55 PM 42.8 °F 41.0 °F 93% 30.20 in 10.0 mi Calm Calm - N/A   Clear
10:15 PM 41.0 °F 39.2 °F 93% 30.19 in 10.0 mi Calm Calm - N/A   Clear
10:35 PM 41.0 °F 39.2 °F 93% 30.21 in 10.0 mi Calm Calm - N/A   Clear
10:55 PM 41.0 °F 39.2 °F 93% 30.21 in 10.0 mi Calm Calm - N/A   Clear
11:15 PM 41.0 °F 39.2 °F 93% 30.20 in 10.0 mi Calm Calm - N/A   Clear
11:35 PM 39.2 °F 39.2 °F 100% 30.20 in 10.0 mi Calm Calm - N/A   Clear
11:55 PM 39.2 °F 39.2 °F 100% 30.19 in 10.0 mi Calm Calm - N/A   Clear